DW9727 Weather Reports


time (UTC)temp
C
wind
direction
speed
KPH
gust
KPH
rain 1hr
cm
rain 24hr
cm
rain mn
cm
humidity
%
barometer
mb
20260506030710 8 30 3.2 4.8 0.00 0.03 0.03 42 1015.2
20260506025711 8 0 3.2 11.3 0.00 0.03 0.03 41 1015.1
20260506024711 8 13 3.2 8.0 0.00 0.03 0.03 42 1014.9
20260506023710 9 15 3.2 4.8 0.00 0.03 0.03 41 1014.8
20260506022710 9 334 4.8 8.0 0.00 0.03 0.03 40 1014.6
20260506021710 9 5 3.2 14.5 0.00 0.03 0.03 41 1014.3
20260506020710 10 354 4.8 16.1 0.00 0.03 0.03 40 1014.1
20260506015710 10 5 4.8 12.9 0.00 0.03 0.03 40 1014.0
20260506014710 10 11 3.2 8.0 0.00 0.03 0.03 39 1013.9
20260506013710 10 15 4.8 11.3 0.00 0.03 0.03 38 1013.6
20260506012710 10 22 6.4 16.1 0.00 0.03 0.03 37 1013.6
20260506011710 11 18 3.2 14.5 0.00 0.03 0.03 35 1013.6
20260506005710 11 331 11.3 24.1 0.00 0.03 0.03 34 1013.2
20260506004711 11 9 9.7 19.3 0.00 0.03 0.03 35 1013.1
20260506003710 11 348 9.7 16.1 0.00 0.03 0.03 35 1012.9
20260506002710 11 3 11.3 19.3 0.00 0.03 0.03 35 1012.8
20260506001710 11 349 9.7 22.5 0.00 0.03 0.03 36 1012.9
20260506000710 12 0 14.5 25.7 0.00 0.03 0.03 36 1012.9
20260505233710 12 334 16.1 27.4 0.00 0.03 0.03 36 1012.7
20260505232710 12 332 14.5 32.2 0.00 0.03 0.03 35 1012.6
20260505231711 12 325 16.1 27.4 0.00 0.03 0.03 38 1012.5
20260505230710 12 305 12.9 38.6 0.00 0.03 0.03 37 1012.5
20260505225710 12 304 12.9 29.0 0.00 0.03 0.03 37 1012.5
20260505223710 13 336 17.7 29.0 0.00 0.03 0.03 37 1012.5
20260505222711 13 17 14.5 33.8 0.00 0.03 0.03 38 1012.5
20260505220710 14 313 16.1 35.4 0.00 0.03 0.03 36 1012.4
20260505215710 14 298 20.9 32.2 0.00 0.03 0.03 38 1012.4
20260505214710 14 325 25.7 37.0 0.00 0.03 0.03 36 1012.2
20260505212710 14 335 22.5 38.6 0.00 0.03 0.03 37 1012.4
20260505211710 15 23 16.1 32.2 0.00 0.03 0.03 35 1012.3
20260505210710 15 327 19.3 29.0 0.00 0.03 0.03 39 1012.5
20260505205710 15 34 20.9 33.8 0.00 0.03 0.03 36 1012.4
20260505203710 15 286 20.9 27.4 0.00 0.03 0.03 40 1012.5
20260505200710 14 9 14.5 25.7 0.00 0.03 0.03 40 1012.9
20260505195710 14 315 6.4 27.4 0.00 0.03 0.03 40 1013.0
20260505194711 15 315 16.1 29.0 0.00 0.03 0.03 44 1013.1
20260505192710 15 264 16.1 25.7 0.00 0.03 0.03 44 1013.3
20260505191711 15 35 11.3 19.3 0.00 0.03 0.03 47 1013.3
20260505190711 15 327 11.3 25.7 0.00 0.03 0.03 42 1013.4
20260505185711 15 317 11.3 22.5 0.00 0.03 0.03 45 1013.3
20260505184711 13 325 11.3 20.9 0.00 0.03 0.03 44 1013.3
20260505182710 13 324 14.5 20.9 0.00 0.03 0.03 45 1013.5
20260505175710 13 309 9.7 22.5 0.00 0.03 0.03 51 1013.7
20260505174710 13 13 8.0 19.3 0.00 0.03 0.03 45 1013.8
20260505173710 12 308 6.4 19.3 0.00 0.03 0.03 49 1013.9
20260505172710 12 306 12.9 24.1 0.00 0.03 0.03 48 1014.2
20260505171711 12 288 8.0 19.3 0.00 0.03 0.03 45 1014.1
20260505170710 11 336 4.8 12.9 0.00 0.03 0.03 48 1014.0
20260505165710 12 298 8.0 14.5 0.00 0.03 0.03 56 1014.0
20260505163710 10 336 8.0 14.5 0.00 0.03 0.03 54 1014.0
20260505162710 11 336 8.0 19.3 0.00 0.03 0.03 56 1014.2
20260505161710 11 315 4.8 12.9 0.00 0.03 0.03 53 1014.1
20260505160710 10 297 4.8 9.7 0.00 0.03 0.03 55 1014.1
20260505152710 10 52 4.8 12.9 0.00 0.03 0.03 55 1013.3
20260505151710 10 15 3.2 11.3 0.00 0.03 0.03 60 1013.3
20260505150710 10 322 8.0 14.5 0.00 0.03 0.03 60 1013.3
20260505124711 6 325 3.2 4.8 0.00 0.03 0.03 73 1011.6
20260505122711 6 327 3.2 8.0 0.00 0.03 0.03 73 1011.3
20260505121710 6 323 3.2 4.8 0.00 0.03 0.03 73 1011.1
20260505120710 6 329 3.2 4.8 0.00 0.03 0.03 74 1010.9
20260505115710 6 9 1.6 3.2 0.00 0.03 0.03 72 1010.6
20260505114710 6 13 0.0 3.2 0.00 0.03 0.03 70 1010.4
20260505113711 6 15 1.6 4.8 0.00 0.03 0.03 68 1010.3
20260505112711 6 5 1.6 4.8 0.00 0.03 0.03 68 1010.1
20260505111711 7 17 3.2 4.8 0.00 0.03 0.03 68 1010.3
20260505101710 7 16 3.2 4.8 0.00 0.03 0.03 70 1010.1
20260505100710 7 9 1.6 4.8 0.00 0.03 0.03 68 1010.3
20260505095710 8 9 1.6 8.0 0.00 0.03 0.03 67 1010.2
20260505094710 8 17 4.8 9.7 0.00 0.03 0.03 67 1010.1
20260505093711 8 28 3.2 8.0 0.00 0.03 0.03 68 1010.1
20260505091710 8 30 4.8 12.9 0.00 0.03 0.03 76 1010.1
20260505090711 8 336 3.2 9.7 0.00 0.03 0.03 82 1010.1
20260505085711 8 42 3.2 3.2 0.00 0.03 0.03 82 1009.9
20260505083711 8 42 1.6 3.2 0.00 0.03 0.03 81 1009.6
20260505082710 8 42 1.6 3.2 0.00 0.03 0.03 81 1009.5
20260505080711 8 42 0.0 3.2 0.00 0.03 0.03 80 1009.3
20260505075710 9 42 0.0 1.6 0.00 0.03 0.03 79 1009.4
20260505074710 9 42 0.0 3.2 0.00 0.03 0.03 79 1009.5
20260505072711 9 42 0.0 3.2 0.00 0.03 0.03 79 1009.2
20260505071710 9 42 0.0 1.6 0.00 0.03 0.03 79 1009.0
20260505070711 9 42 0.0 3.2 0.00 0.03 0.03 79 1008.9
20260505065711 9 42 1.6 1.6 0.00 0.03 0.03 78 1008.8
20260505064712 9 42 0.0 0.0 0.00 0.03 0.03 76 1008.8
20260505063711 9 42 0.0 0.0 0.03 0.03 0.03 76 1008.6
20260505062710 9 42 0.0 0.0 0.03 0.03 0.03 76 1008.5
20260505061710 9 42 0.0 3.2 0.03 0.03 0.03 77 1008.3
20260505060710 10 42 0.0 0.0 0.03 0.03 0.03 76 1008.3
20260505054710 10 42 0.0 0.0 0.03 0.03 0.03 73 1008.6
20260505051710 10 35 1.6 4.8 0.00 0.00 0.00 73 1008.6
20260505050711 10 41 0.0 3.2 0.00 0.00 0.00 73 1008.8
20260505040711 11 0 8.0 19.3 0.00 0.00 0.00 63 1008.7
20260505033711 11 15 3.2 4.8 0.00 0.00 0.00 62 1009.5
20260505031710 12 9 8.0 19.3 0.00 0.00 0.00 58 1009.0